CW3442 Weather Reports


Display with metric or nautical units.
time (UTC)temp
F
wind
direction
speed
MPH
gust
MPH
rain 1hr
in
rain 24hr
in
rain mn
in
humidity
%
barometer
mb
20260904023527 69 169 0.0 0.0 0.00 0.00 0.00 82 1006.6
20260904020543 69 169 0.0 0.0 0.00 0.00 0.00 82 1006.6
20260904013537 70 169 0.0 0.0 0.00 0.00 0.00 80 1006.6
20260904010533 71 169 0.0 0.0 0.00 0.00 0.00 78 1006.5
20260904003525 72 169 0.0 0.0 0.00 0.00 0.00 74 1006.3
20260904000535 73 169 0.0 0.0 0.00 0.00 0.00 72 1006.0
20260903233527 75 169 0.0 0.0 0.00 0.00 0.00 69 1005.6
20260903230526 76 169 0.0 0.0 0.00 0.00 0.00 68 1005.6
20260903223542 77 169 0.0 0.0 0.00 0.00 0.00 67 1005.6
20260903220540 78 169 0.0 0.0 0.00 0.00 0.00 64 1005.7
20260903213536 78 166 0.0 0.0 0.00 0.00 0.00 65 1005.8
20260903210536 78 155 0.0 0.0 0.00 0.00 0.00 64 1005.2
20260903203555 77 189 0.0 0.0 0.00 0.00 0.00 66 1005.6
20260903200537 76 248 0.0 0.0 0.00 0.00 0.00 66 1005.6
20260903193530 76 248 0.0 0.0 0.00 0.00 0.00 63 1005.6
20260903190526 78 245 0.0 0.0 0.00 0.00 0.00 67 1005.6
20260903183541 81 258 0.0 0.0 0.00 0.00 0.00 62 1005.7
20260903180530 80 267 0.0 0.0 0.00 0.00 0.00 65 1005.7
20260903173525 79 221 0.0 0.0 0.00 0.00 0.00 66 1005.7
20260903170549 79 195 0.0 0.0 0.00 0.00 0.00 68 1005.9
20260903163529 77 118 0.0 0.0 0.00 0.00 0.00 72 1006.2
20260903160542 76 163 0.0 0.0 0.00 0.00 0.00 75 1006.5
20260903153532 74 103 0.0 0.0 0.00 0.00 0.00 79 1006.8
20260903150531 73 175 0.0 0.0 0.00 0.00 0.00 81 1006.9
20260903143527 72 174 0.0 0.0 0.00 0.00 0.00 84 1007.0
20260903140528 71 188 0.0 0.0 0.00 0.00 0.00 87 1007.0
20260903133526 69 194 0.0 0.0 0.00 0.00 0.00 93 1006.9
20260903130557 68 194 0.0 0.0 0.00 0.00 0.00 95 1007.0
20260903123543 67 194 0.0 0.0 0.00 0.00 0.00 95 1006.9
20260903120557 67 194 0.0 0.0 0.00 0.00 0.00 95 1006.9
20260903113535 67 194 0.0 0.0 0.00 0.00 0.00 96 1006.9
20260903110549 66 194 0.0 0.0 0.00 0.00 0.00 95 1006.9
20260903103557 66 194 0.0 0.0 0.00 0.00 0.00 95 1006.8
20260903100529 66 194 0.0 0.0 0.00 0.00 0.00 95 1006.4
20260903093530 66 194 0.0 0.0 0.00 0.00 0.00 95 1006.2
20260903090548 66 194 0.0 0.0 0.00 0.00 0.00 95 1006.2
20260903083540 65 194 0.0 0.0 0.00 0.00 0.00 95 1006.2
20260903080544 65 194 0.0 0.0 0.00 0.00 0.00 95 1006.3
20260903073524 65 157 0.0 0.0 0.00 0.00 0.00 95 1006.2
20260903070554 65 156 0.0 0.0 0.00 0.00 0.00 95 1006.3
20260903063550 65 114 0.0 0.0 0.00 0.00 0.00 95 1006.2
20260903060547 65 87 0.0 0.0 0.00 0.00 0.00 95 1006.3
20260903053545 65 201 1.0 0.0 0.00 0.00 0.00 94 1006.4
20260903050541 65 113 1.0 0.0 0.00 0.00 0.00 94 1006.7
20260903043535 65 100 0.0 0.0 0.00 0.00 0.00 95 1006.7
20260903040534 65 122 0.0 0.0 0.00 0.00 0.00 94 1007.0
20260903033523 65 190 0.0 0.0 0.00 0.00 0.00 94 1007.1
20260903030540 65 100 1.0 0.0 0.00 0.00 0.00 94 1007.3